Location: Hradec Kralove
(50.2170°N, 15.8330°E)
Time: 12:23:30
(UTC+02:00)

Explorer 7 - Pass Details

Date: 30 January 2023
Orbit: 478 x 657 km, 50.3° (Epoch: 26 March)

Event Time Altitude Azimuth Distance (km) Brightness Sun altitude
Rises 15:38:54 0° 263° (W) 2,799 11.5 8.1°
Reaches altitude 10° 15:41:07 10° 263° (W) 1,930 10.7 7.8°
Maximum altitude 15:45:34 90° 266° (W) 625 7.3 7.3°
Drops below altitude 10° 15:50:17 10° 85° (E) 2,033 9.2 6.7°
Sets 15:52:40 0° 86° (E) 2,962 10.0 6.4°
